[[{"header":{"parameterUnit":"m.s-1","parameterCategory":1,"la1":30.2991,"la2":30.254,"lo1":-89.0895,"lo2":-89.0444,"dy":0.0017,"dx":0.0017,"nx":28,"ny":28,"refTime":"2024-05-12T09:00:00:Z","depth":0,"parameterNumber":2,"parameterNumberName":"U-component_of_WINDS"},"data":[0,0,0,0,0,0,0,0,0,0,0,0,0,0,0,0,0,0,0,0,0,0,0,0,0,0,0,0,0,0,0,0,0,0,0,0,0,0,0,0,0,0,0,0,0,0,0,0,0,0,0,0,0,0,0,0,0,0,0.7033,0.7033,0,0.702,0.702,0.702,0.6986,0.6985,0.6985,0.6984,0.6971,0.6972,0.6972,0,0,0,0,0,0,0,0,0,0,0,0,0,0.7028,0.7028,0.7033,0.7033,0.7033,0.702,0.702,0.702,0.6986,0.6985,0.6984,0.6984,0.6971,0.6972,0.6972,0,0,0,0,0,0,0,0,0,0,0,0,0,0.7024,0.7028,0.7033,0.7015,0.7013,0.702,0.702,0.702,0.6986,0.6985,0.6984,0.6983,0.6971,0.6972,0.6972,0.6997,0,0,0.6974,0.6974,0,0,0,0,0,0,0,0,0.7024,0.7024,0.7018,0.7016,0.7014,0.7004,0.7013,0.7012,0.6987,0.6996,0.6984,0.6983,0.6983,0.6982,0.6982,0.6996,0.6996,0.6974,0.6974,0.6974,0.6974,0,0,0,0,0,0,0,0.7024,0.7024,0.7028,0.7018,0.7015,0.7006,0.7004,0.7013,0.6996,0.6995,0.6993,0.6992,0.6982,0.6982,0.6982,0.6995,0.6974,0.6974,0.6974,0.6975,0.7024,0.7025,0,0,0,0,0,0,0.7027,0.7025,0.7029,0.7028,0.7016,0.7007,0.7005,0.7008,0.6996,0.6993,0.6993,0.699,0.6982,0.6981,0.6981,0.7007,0.6974,0.6975,0.6975,0.7023,0.7025,0.7026,0,0,0,0,0,0,0.7027,0.7028,0.7029,0.7026,0.7025,0.7008,0.7012,0.7008,0.7008,0.6994,0.699,0.6996,0.6981,0.6981,0.6992,0.7006,0.6975,0.6975,0.7022,0.7024,0.7025,0.7059,0,0,0,0,0,0,0.7027,0.7028,0.7038,0.7026,0.7025,0.7041,0.7013,0.7009,0.7009,0.7006,0.6996,0.6993,0.698,0.6991,0.6993,0.7006,0.6976,0.7021,0.7023,0.7025,0.7057,0.7062,0.7066,0,0,0,0,0,0.7027,0.705,0.7039,0.704,0.7037,0.7042,0.7041,0.7025,0.7011,0.702,0.7009,0.6994,0.7004,0.6993,0.6994,0.7008,0.702,0.7022,0.7025,0.7055,0.7061,0.7066,0,0,0,0,0,0,0.7065,0.7048,0.7036,0.7055,0.705,0.7036,0.7048,0.7033,0.7032,0.7029,0.7009,0.7007,0.7021,0.7015,0.7003,0.7029,0.7009,0.7012,0.7032,0.7037,0.7042,0.7043,0.6976,0,0,0,0,0,0.7076,0.7081,0.7065,0.7083,0.7081,0.7065,0.7066,0.7054,0.7048,0.7046,0.7037,0.7032,0.7033,0.7035,0.7036,0.7056,0.7052,0.7065,0.707,0.7074,0.7076,0.7083,0.7088,0.7033,0.7033,0.7033,0,0,0.7098,0.7089,0.7094,0.7091,0.7085,0.709,0.7063,0.7071,0.7073,0.7047,0.7057,0.7049,0.7042,0.7057,0.7063,0.7053,0.709,0.7077,0.708,0.708,0.7085,0.7091,0.7095,0.7035,0.7035,0.7034,0,0,0.7139,0.7134,0.7147,0.7141,0.7133,0.7121,0.7124,0.7112,0.7105,0.7114,0.7094,0.7097,0.7101,0.7096,0.7094,0.7129,0.7113,0.713,0.7154,0.716,0.7165,0.7168,0.7179,0.7183,0.7132,0.7132,0.7132,0,0.7168,0.7175,0.7156,0.7163,0.7161,0.7136,0.7147,0.7143,0.7136,0.7135,0.7123,0.7125,0.7119,0.713,0.7138,0.7139,0.714,0.7131,0.7166,0.7169,0.7172,0.7182,0.7186,0.7134,0.7134,0.7134,0.7134,0,0.7208,0.7213,0.7224,0.7216,0.7215,0.7225,0.7206,0.7208,0.7194,0.7183,0.7191,0.7182,0.7179,0.7181,0.7169,0.719,0.7183,0.7169,0.7149,0.718,0.7188,0.7192,0.7137,0.7136,0.7136,0.7135,0,0,0.7276,0.7254,0.7259,0.7253,0.724,0.7243,0.725,0.7246,0.7246,0.7242,0.7246,0.7248,0.7233,0.7231,0.7218,0.7224,0.7249,0.7208,0.7207,0.7214,0.7268,0.7278,0.7283,0.7238,0.7239,0.724,0.7268,0,0.7313,0.7324,0.7306,0.7321,0.7323,0.7297,0.7303,0.7295,0.7284,0.7284,0.7272,0.7273,0.7255,0.7252,0.7257,0.7245,0.7259,0.7243,0.7241,0.7241,0.7243,0.7288,0.7299,0.7327,0.7272,0.7272,0.7273,0,0.736,0.7354,0.7369,0.7352,0.7352,0.7358,0.7351,0.7351,0.7341,0.7332,0.7327,0.7311,0.7315,0.7295,0.73,0.7289,0.7287,0.728,0.7281,0.728,0.7258,0.7286,0.7335,0.7339,0.7278,0.7278,0.7277,0,0.7404,0.7401,0.7409,0.7405,0.7386,0.739,0.7382,0.737,0.7368,0.7361,0.7359,0.7354,0.7351,0.7347,0.7329,0.7317,0.7334,0.7314,0.7326,0.7327,0.7331,0.7331,0.7379,0.7332,0.7332,0.7332,0.7332,0,0.7448,0.7457,0.7428,0.7433,0.7442,0.7419,0.7429,0.7418,0.7407,0.7408,0.7386,0.7387,0.7364,0.7362,0.7348,0.7352,0.7352,0.7344,0.734,0.7345,0.7346,0.7343,0.734,0.7333,0.7333,0.7332,0.7332,0,0.75,0.7481,0.7487,0.7467,0.7462,0.7469,0.7451,0.7454,0.744,0.7442,0.7441,0.742,0.7416,0.7397,0.7391,0.7381,0.7389,0.7382,0.7393,0.739,0.7402,0.7401,0.745,0.7454,0.7405,0.7406,0.7406,0,0.7528,0.7534,0.7514,0.7512,0.7505,0.7504,0.75,0.7478,0.7475,0.7461,0.7465,0.7459,0.7453,0.7449,0.7433,0.7426,0.7418,0.7435,0.7417,0.7421,0.7416,0.7415,0.7415,0.7439,0.744,0.744,0.7441,0,0.758,0.7569,0.7565,0.7556,0.7552,0.7545,0.7536,0.7536,0.7511,0.7509,0.7504,0.75,0.749,0.7485,0.7475,0.7466,0.7449,0.7446,0.7449,0.7454,0.7459,0.7454,0.7402,0.7446,0.7445,0.7445,0.7445,0.7444,0.7619,0.7622,0.7607,0.7602,0.7593,0.7584,0.7585,0.757,0.7566,0.7556,0.7543,0.7539,0.7525,0.751,0.7502,0.7498,0.7489,0.7493,0.7493,0.7494,0.7496,0.746,0.7497,0.7497,0.7496,0.7496,0.7496,0,0.7668,0.7656,0.7652,0.7639,0.7634,0.7617,0.7606,0.7603,0.76,0.7588,0.7582,0.7575,0.7568,0.7551,0.7542,0.7542,0.7534,0.754,0.754,0.7537,0.7506,0.7504,0.7547,0.7547,0.7547,0.7547,0.7547,0.7547,0.7692,0.7695,0.7683,0.768,0.7668,0.7664,0.7658,0.7649,0.7639,0.7632,0.7626,0.7614,0.7599,0.7588,0.7581,0.7576,0.7573,0.7582,0.7574,0.7545,0.754,0.7535,0.7533,0.7582,0.7582,0.7605,0.7605,0.7606]},{"header":{"parameterUnit":"m.s-1","parameterCategory":1,"la1":30.2991,"la2":30.254,"lo1":-89.0895,"lo2":-89.0444,"dy":0.0017,"dx":0.0017,"nx":28,"ny":28,"refTime":"2024-05-12T09:00:00:Z","depth":0,"parameterNumber":3,"parameterNumberName":"V-component_of_WINDS"},"data":[0,0,0,0,0,0,0,0,0,0,0,0,0,0,0,0,0,0,0,0,0,0,0,0,0,0,0,0,0,0,0,0,0,0,0,0,0,0,0,0,0,0,0,0,0,0,0,0,0,0,0,0,0,0,0,0,0,0,5.6553,5.6555,0,5.674,5.6742,5.6745,5.6782,5.678,5.6779,5.6777,5.6968,5.6974,5.6981,0,0,0,0,0,0,0,0,0,0,0,0,0,5.6224,5.6229,5.6552,5.6555,5.6557,5.674,5.6743,5.6745,5.6782,5.678,5.6778,5.6777,5.6966,5.6973,5.6981,0,0,0,0,0,0,0,0,0,0,0,0,0,5.6384,5.6231,5.6552,5.6597,5.6603,5.674,5.6743,5.6746,5.6782,5.678,5.6778,5.6776,5.6963,5.6973,5.6982,5.7086,0,0,5.7012,5.7016,0,0,0,0,0,0,0,0,5.6375,5.6396,5.6588,5.6595,5.6602,5.6735,5.6697,5.686,5.6783,5.6714,5.6777,5.6775,5.6892,5.6908,5.6948,5.7095,5.7103,5.7013,5.7018,5.7023,5.7025,0,0,0,0,0,0,0,5.6364,5.6388,5.6627,5.6591,5.6599,5.6608,5.6628,5.6728,5.6813,5.672,5.6723,5.6745,5.6895,5.6938,5.6952,5.7106,5.7012,5.7021,5.7027,5.7031,5.7347,5.7349,0,0,0,0,0,0,5.6345,5.6379,5.6621,5.6632,5.6481,5.6616,5.6638,5.6695,5.6812,5.6828,5.6747,5.6746,5.6923,5.6941,5.6959,5.7088,5.7022,5.7032,5.7037,5.7344,5.7347,5.735,0,0,0,0,0,0,5.6338,5.6366,5.6613,5.6507,5.6539,5.6624,5.6686,5.6699,5.6742,5.6832,5.6848,5.6775,5.6922,5.6946,5.7054,5.7095,5.7036,5.7045,5.7341,5.7345,5.7349,5.7346,0,0,0,0,0,0,5.6328,5.6363,5.6404,5.6507,5.6544,5.6705,5.6689,5.6705,5.6759,5.676,5.6863,5.6878,5.6922,5.7039,5.7064,5.7107,5.7052,5.7338,5.7343,5.7348,5.7343,5.735,5.7355,0,0,0,0,0,5.6316,5.6396,5.6406,5.6435,5.6597,5.6708,5.6729,5.6778,5.6762,5.6803,5.6861,5.6874,5.7087,5.705,5.7078,5.7125,5.7335,5.7342,5.7347,5.734,5.7348,5.7355,0,0,0,0,0,0,5.6294,5.641,5.6423,5.6538,5.6613,5.6714,5.6767,5.6785,5.6866,5.6863,5.6921,5.6944,5.7049,5.7098,5.7055,5.7231,5.721,5.7222,5.7195,5.7204,5.721,5.7196,5.706,0,0,0,0,0,5.6303,5.6384,5.648,5.6572,5.6609,5.6682,5.6732,5.6764,5.6843,5.6875,5.6941,5.7017,5.7101,5.7155,5.7237,5.735,5.7373,5.7397,5.7402,5.7407,5.7416,5.748,5.7491,5.737,5.7369,5.7369,0,0,5.6321,5.6395,5.6442,5.657,5.6632,5.6714,5.6708,5.6795,5.6856,5.6888,5.6995,5.7046,5.7135,5.7246,5.7298,5.729,5.7455,5.7415,5.7417,5.7425,5.7487,5.7498,5.7508,5.7373,5.7373,5.7372,0,0,5.6397,5.6461,5.6544,5.6607,5.67,5.6748,5.6768,5.6867,5.6902,5.701,5.7035,5.7109,5.7252,5.7315,5.7365,5.7464,5.7479,5.7489,5.7521,5.7582,5.7591,5.76,5.7635,5.7647,5.7498,5.7498,5.7498,0,5.6408,5.6533,5.6585,5.6671,5.6726,5.6759,5.6844,5.6902,5.7017,5.7054,5.7044,5.7225,5.7287,5.7413,5.7437,5.7477,5.7501,5.7478,5.7586,5.7595,5.7604,5.7638,5.7651,5.7499,5.7499,5.7499,5.7499,0,5.6542,5.6628,5.6684,5.6796,5.6857,5.6942,5.7006,5.7062,5.7089,5.7137,5.7246,5.7322,5.7421,5.7453,5.7479,5.7583,5.7575,5.7574,5.7554,5.7615,5.7648,5.7662,5.75,5.7499,5.7499,5.7499,0,0,5.6609,5.6748,5.6767,5.6818,5.6924,5.6992,5.7078,5.7174,5.7221,5.73,5.7373,5.7494,5.7494,5.7551,5.7585,5.7638,5.7712,5.7632,5.7634,5.7644,5.783,5.783,5.7844,5.7722,5.7725,5.7727,5.7823,0,5.6697,5.6852,5.6901,5.7031,5.7111,5.7144,5.7219,5.7291,5.7339,5.7414,5.7466,5.7551,5.7545,5.7579,5.7634,5.7691,5.775,5.7685,5.7791,5.7794,5.7768,5.7862,5.7862,5.7948,5.7836,5.7838,5.784,0,5.682,5.6901,5.7039,5.7135,5.717,5.7237,5.7329,5.74,5.7483,5.7514,5.7578,5.7607,5.7698,5.7673,5.7799,5.7753,5.78,5.7834,5.7839,5.7851,5.7821,5.7876,5.7977,5.799,5.7861,5.7859,5.7858,0,5.6855,5.6998,5.71,5.7142,5.7256,5.7302,5.7352,5.7433,5.7488,5.7568,5.7604,5.7694,5.7743,5.7812,5.7864,5.7841,5.7986,5.7965,5.8013,5.8012,5.8042,5.804,5.8152,5.8072,5.8072,5.8072,5.8071,0,5.6948,5.7031,5.7117,5.7179,5.7272,5.7328,5.7419,5.747,5.7542,5.7614,5.7647,5.7714,5.778,5.7856,5.7898,5.7995,5.8017,5.8044,5.8055,5.8042,5.8038,5.8072,5.8068,5.8075,5.8075,5.8074,5.8073,0,5.7003,5.7063,5.7176,5.7275,5.7301,5.7366,5.745,5.7512,5.756,5.7651,5.7676,5.7753,5.7843,5.7903,5.8019,5.8047,5.8153,5.8162,5.8125,5.813,5.8176,5.817,5.8314,5.8336,5.8241,5.8242,5.8243,0,5.7058,5.7123,5.7229,5.728,5.733,5.7411,5.7467,5.7524,5.7581,5.7681,5.773,5.7823,5.79,5.8044,5.811,5.8198,5.8209,5.8254,5.8223,5.8208,5.821,5.8205,5.8212,5.8258,5.8259,5.826,5.826,0,5.715,5.7177,5.7256,5.7347,5.7413,5.7487,5.7561,5.7601,5.7671,5.7733,5.7826,5.7886,5.8005,5.8097,5.8191,5.8242,5.8263,5.8269,5.8285,5.8272,5.8249,5.8262,5.8139,5.8266,5.8265,5.8265,5.8264,5.8264,5.7207,5.7265,5.7349,5.7437,5.7499,5.7567,5.7629,5.7686,5.7765,5.7866,5.7895,5.7992,5.8074,5.8203,5.8255,5.8332,5.8327,5.835,5.8356,5.8361,5.8361,5.8236,5.835,5.835,5.835,5.8349,5.8349,0,5.73,5.7355,5.7436,5.7538,5.7607,5.7621,5.7704,5.776,5.7846,5.792,5.7996,5.8103,5.8192,5.8265,5.8357,5.8404,5.8416,5.8427,5.8424,5.8435,5.8361,5.8337,5.8415,5.8415,5.8415,5.8415,5.8415,5.8415,5.7356,5.7457,5.7493,5.7624,5.7679,5.7775,5.7821,5.7884,5.7944,5.8062,5.8137,5.8184,5.8257,5.8355,5.8438,5.8457,5.8489,5.8497,5.8518,5.8447,5.844,5.8433,5.8412,5.8504,5.8504,5.8587,5.8587,5.8588]}]]